Location: Dalve
(49.8909°N, 14.3974°E)
Time: 23:25:05
(UTC+00:00)

Daily predictions for brighter satellites

Satellite Brightness Start Highest point End
(mag) Time Altitude Azimuth Time Altitude Azimuth Time Altitude Azimuth
NOSS 2-3 (C) 4.3 15:52:17 10° NW 15:57:04 59° NE 16:03:37 10° ESE
Thor Agena Rocket 3.5 15:54:53 10° SSE 15:59:49 60° ENE 16:04:46 10° N
SPOT 1/Viking Rocket 4.4 15:56:02 10° ESE 16:00:23 28° ENE 16:04:44 10° N
In-Cosmos 22 4.3 15:55:00 10° S 16:00:34 84° E 16:06:19 10° NNE
SJ-12 4.5 15:57:21 10° SE 16:00:43 31° ENE 16:04:08 10° N
SL-8 Rocket 4.3 15:57:05 10° N 16:02:59 42° ENE 16:08:48 10° SE
Cosmos 676 Rocket 4.0 15:59:38 10° NNW 16:04:46 59° ENE 16:09:54 10° SE
NOSS 3-2 (C) 4.4 15:59:56 10° NW 16:07:11 75° SW 16:15:56 10° SSE
Cosmos 371 Rocket 3.4 16:05:25 10° NNW 16:10:13 84° WSW 16:14:59 10° SSE
NOSS 3-4 (A) 4.4 16:06:49 10° SSE 16:10:46 22° ESE 16:14:56 10° ENE
NOSS 3-4 (C) 4.5 16:06:58 10° SSE 16:10:56 21° ESE 16:15:06 10° ENE
COSMOS 2455 4.4 16:07:41 10° NNW 16:11:36 17° NNE 16:15:31 10° NE
SAR-Lupe-4 4.5 16:09:27 10° SE 16:12:33 28° ENE 16:15:39 10° N
NOSS 2-3 (E) 4.2 16:07:43 10° NW 16:12:42 83° NE 16:19:27 10° SE
SJ 16-02 1.6 16:15:07 10° NNW 16:19:24 74° WSW 16:23:39 10° SSE
ATLAS 3B R/B 3.8 16:12:40 10° W 16:20:01 44° NNW 16:27:32 10° NE
YAOGAN 1 3.6 16:17:43 10° ESE 16:21:05 23° ENE 16:24:28 10° N
Resurs 01 Rocket 3.3 16:20:47 10° E 16:22:51 13° ENE 16:24:55 10° NNE
Cosmos 1484 Rocket 3.9 16:21:45 10° S 16:24:55 41° W 16:28:07 10° NNW
Meteor 1-13 Rocket 4.4 16:20:24 10° S 16:25:56 56° E 16:31:39 10° NNE
Meteor 1-22 Rocket 4.1 16:20:43 10° N 16:26:27 79° ENE 16:31:53 10° SSE
Cosmos 1821 Rocket 4.4 16:21:24 10° N 16:27:12 39° ENE 16:32:54 10° SE
Cosmos 1340 Rocket 4.2 16:25:06 10° NNE 16:27:40 17° ENE 16:30:13 10° ESE
Cosmos 1953 2.6 16:24:21 10° N 16:27:51 38° ENE 16:31:19 10° SE
Cosmos 1703 3.9 16:27:33 10° SSE 16:30:20 25° E 16:32:56 11° NE
IRS-P3 4.2 16:26:08 10° SE 16:31:18 56° ENE 16:36:30 10° N
ATLAS 5 CENTAUR R/B 0.8 16:31:18 10° SSW 16:34:13 55° SE 16:36:34 16° NE
Cosmos 1470 Rocket 3.6 16:33:14 10° N 16:37:30 56° ENE 16:41:45 10° SSE
BREEZE M DEB (TANK) 3.8 16:35:43 10° W 16:37:37 28° SSW 16:40:25 10° SE
CZ-2D R/B 2.6 16:36:08 10° SSE 16:39:15 81° ENE 16:42:25 10° N
SL-16 R/B 3.1 16:34:25 10° N 16:40:28 60° WNW 16:46:30 10° SW
Cosmos 2181 Rocket 4.3 16:35:07 10° SSE 16:40:50 43° E 16:46:39 10° NNE
Cosmos 1697 Rocket 4.1 16:37:27 10° N 16:41:21 19° NE 16:43:29 15° ENE
Spot 4 Rocket 4.5 16:37:45 10° SE 16:42:26 38° ENE 16:47:09 10° N
ERS-1 4.4 16:37:45 10° SSE 16:42:41 79° ENE 16:47:43 10° NNW
Cosmos 1603 4.3 16:37:49 10° S 16:42:57 37° ESE 16:47:21 13° NE
Cosmos 1933 Rocket 4.2 16:41:29 10° N 16:45:30 33° ENE 16:49:29 10° SE
USA 215 4.3 16:41:47 14° ENE 16:46:13 28° SE 16:51:39 10° S
USA 59 Rocket 1.1 16:44:14 10° NNW 16:46:21 16° NNE 16:46:45 16° NE
Dummy Sat-01 4.4 16:44:37 10° N 16:48:16 72° E 16:51:53 10° S
ISS -2.1 16:50:27 10° SSW 16:53:07 22° SE 16:54:17 18° ESE
Cosmos 2366 rocket 4.0 16:50:49 10° N 16:57:12 88° E 17:03:34 10° S
Cosmos 2369 Rocket 4.1 16:52:52 10° NW 16:57:55 33° WSW 17:02:56 10° SSW
Cosmos 332 Rocket 3.7 16:53:12 10° NNW 16:58:00 78° ENE 17:02:47 10° SSE
Cosmos 2056 Rocket 3.7 16:53:16 10° SSW 16:58:24 72° WNW 17:03:32 10° NNE
MOS 1 Rocket 4.2 16:54:14 10° S 16:59:26 59° W 17:04:28 10° NNW
Cosmos 2218 Rocket 4.0 16:53:36 10° N 17:00:04 87° E 17:06:28 10° S
Okean 2 3.9 16:57:53 10° SSE 17:01:20 32° E 17:02:36 25° NE
ARIANE 5 R/B 3.2 16:57:57 10° S 17:03:06 60° WSW 17:08:17 10° NNW
DNEPR-1 R/B 4.3 17:01:25 10° S 17:05:25 34° ESE 17:06:48 27° E
CZ-2D R/B 3.2 17:02:19 10° SSE 17:06:05 56° ENE 17:09:51 10° N
Cosmos 1943 3.3 17:00:54 10° SSW 17:06:33 81° WNW 17:11:57 12° NNE
RESURS DK-1 3.7 17:04:27 10° SSE 17:07:01 20° ESE 17:07:01 20° ESE
SL-24 R/B - RUBIN 2 3.5 17:07:28 10° NW 17:11:49 62° NE 17:14:45 20° ESE
Cosmos 1869 Rocket 3.8 17:07:57 10° N 17:12:11 43° ENE 17:16:20 10° SE
Cosmos 1633 Rocket 4.3 17:08:41 10° NNW 17:12:46 43° W 17:16:50 10° SSW
Cosmos 2341 Rocket 4.4 17:07:42 10° NNW 17:14:01 67° W 17:20:13 10° S
Cosmos 2360 4.4 17:10:22 10° NNW 17:15:56 48° NE 17:20:02 18° ESE
Meteor 2-13 Rocket 4.4 17:12:24 10° S 17:18:28 66° E 17:24:35 10° NNE
USA 238 DEB 4.1 17:11:08 10° NW 17:18:29 78° SW 17:26:32 10° SSE
USA 238 4.1 17:11:14 10° NW 17:18:36 79° SW 17:26:39 10° SSE
CARTOSAT-1 3.7 17:15:23 10° SE 17:19:24 47° ENE 17:23:28 10° N
Radarsat Rocket 3.9 17:13:38 10° SSE 17:19:53 72° ENE 17:25:44 10° NNW
NOAA 15 4.5 17:14:45 10° SSE 17:19:59 86° ENE 17:25:15 10° NNW
COSMO-SKYMED 1 2.5 17:18:21 27° NE 17:20:20 50° E 17:24:20 10° S
Cosmos 2239 Rocket 4.5 17:14:31 10° N 17:20:45 59° ENE 17:26:54 10° SSE
USA 276 3.5 17:19:48 10° SSW 17:21:09 20° S 17:21:09 20° S
USA 267 3.3 17:17:29 22° E 17:21:57 69° NNE 17:28:26 10° WNW
Resurs 1-3 3.4 17:18:12 10° SSE 17:22:30 86° ENE 17:26:50 10° NNW
Cosmos 2237 Rocket 4.5 17:21:43 10° WNW 17:24:48 15° NNW 17:27:53 10° N
Cosmos 968 Rocket 4.0 17:20:12 10° NNW 17:25:16 59° WSW 17:30:16 10° S
SL-16 R/B 3.8 17:22:38 10° WSW 17:27:32 29° NW 17:32:28 10° NNE
Nadezhda 3 Rocket 4.0 17:22:55 10° SSE 17:28:49 52° E 17:34:47 10° NNE
OceanSat 1 rocket 4.5 17:26:39 10° SSE 17:31:18 69° ENE 17:36:02 10° N
Meteor 1-23 Rocket 4.5 17:28:55 10° SSW 17:34:35 71° WNW 17:40:13 10° N
IRAS Rocket 4.1 17:29:26 10° SSE 17:34:53 66° ENE 17:40:24 10° NNW
Cosmos 1741 Rocket 4.2 17:29:42 10° NNW 17:34:55 70° WSW 17:40:04 10° SSE
YAOGAN 3 4.4 17:31:45 10° SSE 17:35:53 62° ENE 17:40:04 10° N
SKYMED 2 3.8 17:32:20 10° N 17:36:41 71° WNW 17:41:00 10° SSW
BREEZE-M DEB (TANK) 2.9 17:32:45 10° W 17:37:22 87° S 17:38:13 52° E
Cosmos 1331 Rocket 3.9 17:32:17 10° SSW 17:37:25 87° WNW 17:40:43 23° NNE
SPOT 1/Viking Rocket 4.5 17:34:31 10° S 17:39:30 49° W 17:44:30 10° NNW
Cosmos 1302 Rocket 4.1 17:41:59 10° S 17:47:04 53° ESE 17:47:39 50° E
Cosmos 1110 Rocket 4.3 17:48:32 10° SW 17:53:42 63° WNW 17:56:56 23° NNE
Cosmos 1656 3.6 17:48:51 10° NNW 17:54:30 83° WSW 17:59:09 15° SSE
YAOGAN 1 3.7 17:52:37 10° S 17:56:41 44° W 18:00:48 10° NNW
NOAA 6 4.2 17:51:48 10° S 17:56:54 74° WSW 18:02:01 10° NNW
Resurs 01 Rocket 1.4 17:56:23 30° SSE 17:58:33 88° ENE 18:02:57 10° NNW
COSMOS 2455 3.4 17:53:38 10° NNW 17:59:04 39° NE 17:59:04 39° NE
Cosmos 292 Rocket 4.3 17:56:02 10° NNW 18:00:38 56° WSW 18:05:12 10° S
NOSS 3-4 (A) 3.2 17:55:30 10° SW 18:00:48 76° NW 18:02:41 44° NNE
NOSS 3-4 (C) 3.2 17:55:37 10° SW 18:00:57 77° NW 18:02:51 44° NNE
Cosmos 1980 Rocket 3.5 17:56:23 10° NNW 17:59:30 24° NNE 17:59:30 24° NNE
PSLV R/B 4.2 17:57:42 10° S 18:01:45 52° W 18:05:50 10° NNW
Okean 3 3.5 17:59:24 10° SSW 18:03:08 72° SW 18:03:08 72° SW
Cosmos 1340 Rocket 3.6 17:59:50 10° NNW 18:03:30 47° W 18:07:11 10° S
Cosmos 1452 Rocket 3.7 17:58:50 10° SSW 18:04:04 71° WNW 18:06:22 34° NNE
Cosmos 967 Rocket 4.4 17:57:42 10° NW 18:04:14 70° NE 18:05:46 52° ESE
BREEZE-M (TANK) 4.3 18:03:56 10° WSW 18:04:35 18° WSW 18:04:35 18° WSW
ATLAS 3B R/B 4.2 18:06:07 10° WNW 18:12:50 29° N 18:15:25 25° NNE
ATLAS 5 CENTAUR R/B 3.3 18:14:29 10° WNW 18:15:58 18° NW 18:15:58 18° NW
NOSS 3-1 (A) 4.3 18:10:59 10° NW 18:17:05 40° NNE 18:17:17 40° NE
Cosmos 1605 Rocket 4.3 18:12:48 10° N 18:17:44 48° NNE 18:17:44 48° NNE
Cosmos 1697 Rocket 3.0 18:20:44 10° NNW 18:25:14 54° N 18:25:14 54° N
SL-16 R/B 4.4 18:25:18 10° N 18:26:21 13° N 18:26:21 13° N
BREEZE-M DEB (TANK) 4.0 18:25:56 10° WSW 18:27:50 43° WSW 18:27:50 43° WSW
Cosmos 1339 Rocket 4.5 18:23:22 10° SSW 18:29:33 79° W 18:34:24 17° N
ISS -1.0 18:26:14 10° WSW 18:27:15 18° WSW 18:27:15 18° WSW
USA 215 3.1 18:29:08 70° E 18:29:53 80° SE 18:36:26 10° SW
NOSS 3-1 (C) 3.8 18:27:00 10° NW 18:33:44 69° NE 18:34:15 67° ENE
USA 59 Rocket 2.3 18:31:58 10° NW 18:32:24 13° NW 18:32:24 13° NW
Cosmos 1833 Rocket 4.1 18:31:40 10° SSW 18:34:06 26° S 18:34:06 26° S
USA 267 3.6 19:04:50 54° SSW 19:05:06 54° SW 19:11:31 10° WNW
BREEZE-M DEB (TANK) 4.2 19:17:35 10° W 19:21:09 66° W 19:21:09 66° W
ATLAS 3B R/B 4.4 19:58:31 10° NW 20:02:39 28° NNW 20:02:39 28° NNW
